Torna al catalogo

ALEXIS

AttivoScienzaLEO
NORAD 22638·PAYLOAD·🇺🇸 United States

Lanciato Apr 25, 1993 da Vandenberg Space Force Base

Loading…

Prossimi Passaggi (prossime 24 ore)

TLE

AggiornatoSource: Space-Track

Epoca: Sep 14, 2026, 00:04 UTC

1 22638U 93026A   26257.00324714  .00000046  00000-0  37093-4 0  9990
2 22638  69.9190  93.7511 0057609  34.2400 326.2418 14.33690969122891

Traccia ALEXIS in tempo reale con AllMySat

Download on the App Store